Regional Weather Roundup
Issued by NWS

Home | Current Version | Previous Version | Graphics & Text | Print | Product List | Glossary Off
Versions: 1 2 3 4 5 6 7 8 9 10 11 12 13 14 15 16 17 18 19 20 21 22 23 24 25 26 27 28 29 30 31 32 33 34 35 36 37 38 39 40 41 42 43 44 45 46 47 48 49 50

000
ASUS43 KMPX 260201
RWRMN
WEATHER ROUNDUP FOR MINNESOTA
NATIONAL WEATHER SERVICE TWIN CITIES/CHANHASSEN MN
900 PM CDT SAT APR 25 2015


NOTE: "FAIR" INDICATES FEW OR NO CLOUDS BELOW 12,000 FEET WITH NO
SIGNIFICANT WEATHER AND/OR OBSTRUCTIONS TO VISIBILITY. N/A MEANS
CURRENT SKY AND/OR WEATHER CONDITIONS ARE NOT AVAILABLE.

MNZ060>063-068>070-260300-
   Twin Cities Metro

CITY           SKY/WX    TMP DP  RH WIND       PRES   REMARKS
TWIN CITIES    CLEAR     58  20  22 NE3       29.90R
ST PAUL        CLEAR     54  24  31 CALM      29.91R
CRYSTAL        CLEAR     55  31  39 NE9       29.91R
BLAINE         PTCLDY    54  32  43 N13       29.92R
LAKEVILLE      CLEAR     45  28  53 W3        29.91R
EDEN PRAIRIE   CLEAR     55  21  26 CALM      29.89R
SOUTH ST PAUL  CLEAR     54  22  28 CALM      29.90R
LAKE ELMO      FAIR      46  27  46 CALM      29.91R
$$
MNZ001>005-007-008-013>017-022>024-027-028-260300-
   Northwest Minnesota

CITY           SKY/WX    TMP DP  RH WIND       PRES   REMARKS
BEMIDJI        CLEAR     46  28  50 CALM      29.97R
HALLOCK        CLEAR     55  27  33 E7        29.95R
ROSEAU         CLEAR     48  32  53 E9        29.98R
WARROAD        CLEAR     43  34  70 NE12      30.00R
THIEF RVR FALL CLEAR     54  30  40 E7        29.97R
CROOKSTON      CLEAR     55  32  41 E7        29.95R
FOSSTON        CLEAR     46  27  46 E5        29.97R
DETROIT LAKES  CLEAR     54  28  37 SE6       29.97R
MOORHEAD       CLEAR     54  32  43 E7        29.95R
PARK RAPIDS    CLEAR     51  28  41 E6        29.96R
MAHNOMEN       FAIR      53  30  41 SE5       29.95R
$$
MNZ006-009>011-018-025>026-260300-
   North Central Minnesota

CITY           SKY/WX    TMP DP  RH WIND       PRES   REMARKS
BAUDETTE       CLEAR     47  29  49 E8        29.99R
FLAG ISLAND    CLEAR     52  28  40 E3        30.00R
INTL FALLS     CLEAR     41  25  53 NE3       30.00R
WASKISH        CLEAR     50  34  53 CALM      29.98R
BIG FORK       CLEAR     48  27  43 E5        29.99R
LONGVILLE      CLEAR     43  30  61 CALM      29.97R
GRAND RAPIDS   CLEAR     48  18  29 SE7       29.99R
CRANE LAKE     CLEAR     37  27  65 CALM      30.03R
ORR            CLEAR     43  19  39 CALM      29.98R
COOK           CLEAR     43  21  42 CALM      30.01R
WALKER         FAIR      48  31  52 CALM      29.97R
$$
MNZ012-019>021-037-260300-
   Northeast Minnesota

CITY           SKY/WX    TMP DP  RH WIND       PRES   REMARKS
DULUTH         CLEAR     36  16  44 NE10      30.02R
ELY            CLEAR     41  16  36 S5        30.02R
HIBBING        CLEAR     40  12  32 SE8       30.00R
EVELETH        CLEAR     43  14  31 E5        30.03R
DULUTH HARBOR  CLEAR     37  28  70 NE18      30.05R
TWO HARBORS    CLEAR     37  19  48 NE5       30.02S
SILVER BAY     CLEAR     36  16  44 N3        30.03R
GRAND MARAIS     N/A     32  21  64 NW3       30.06R
G MARAIS ARPRT CLEAR     28  16  59 N3        30.03R
$$
MNZ029>031-032-039>041-046>048-054>057-064-260300-
   West Central Minnesota

CITY           SKY/WX    TMP DP  RH WIND       PRES   REMARKS
FERGUS FALLS   CLEAR     54  32  43 E5        29.96R
WHEATON        MOCLDY    48  41  76 E6        29.95R
MORRIS         CLEAR     50  39  66 E5        29.93R
ALEXANDRIA     CLEAR     48  35  60 E6        29.95R
ELBOW LAKE     FAIR      50  41  70 E3        29.94R
WADENA         CLEAR     48  28  46 E7        29.96R
GLENWOOD       CLEAR     46  37  71 NE7       29.95R
APPLETON       CLEAR     48  39  71 NE6       29.92R
BENSON         CLEAR     48  37  66 E1        29.92R
ORTONVILLE     MOCLDY    52  41  66 NE5       29.92R
MADISON        PTCLDY    48  37  66 E8        29.92R
WILLMAR        FAIR      52  36  54 NE3       29.94R
$$
MNZ033>034-036-042>043-049>051-058-059-260300-
   Central Minnesota

CITY           SKY/WX    TMP DP  RH WIND       PRES   REMARKS
ST CLOUD       CLEAR     49  30  48 NE8       29.94R
SAUK CENTRE    FAIR      50  32  50 NE7       29.94R
PAYNESVILLE    CLEAR     47  32  56 N5        29.94R
PINE RIVER     CLEAR     46  34  61 CALM      30.01R
BRAINERD       CLEAR     48  19  31 E8        29.98R
STAPLES        CLEAR     48  27  43 E3        29.97R
LONG PRAIRIE   FAIR      46  32  57 NE7       29.95R
LITTLE FALLS   CLEAR     46  28  49 NE6       29.96R
LITCHFIELD     CLEAR     54  34  47 NE6       29.93R
BUFFALO        CLEAR     50  32  48 N9        29.94R
MAPLE LAKE     CLEAR     51  34  53 NE6       29.94R
$$
MNZ037-044-045-052-053-260300-
   East Central Minnesota

CITY           SKY/WX    TMP DP  RH WIND       PRES   REMARKS
PRINCETON      CLEAR     48  28  46 N6        29.96R
MORA           CLEAR     43  18  36 NE6       29.99R
CAMBRIDGE      CLEAR     50  30  46 N9        29.94R
RUSH CITY      PTCLDY    45  25  45 N9        29.96R
MOOSE LAKE     CLEAR     37  18  44 NE5       29.99R
HINCKLEY       FAIR      41  16  36 NE12G17   29.98R
CLOQUET        CLEAR     36  12  38 NE6       30.01S
MCGREGOR       CLEAR     41   9  26 E9        30.00R
$$
MNZ071>073-080-081-089-090-097-098-260300-
   Southwest Minnesota

CITY           SKY/WX    TMP DP  RH WIND       PRES   REMARKS
MONTEVIDEO     CLEAR     48  37  66 E7        29.93R
GRANITE FALLS  CLOUDY    52  36  53 CALM      29.93R
CANBY          CLOUDY    54  42  65 CALM      29.92R
MARSHALL       CLOUDY    54  36  50 S7        29.91R
REDWOOD FALLS  CLEAR     52  37  56 S6        29.91R
OLIVIA         CLEAR     52  30  43 E3        29.91R
WINDOM         PTCLDY    48  37  66 CALM      29.91R
WORTHINGTON    MOCLDY    48  36  61 E9        29.92R
JACKSON        PTCLDY    45  36  70 E5        29.92R
TRACY          MOCLDY    50  38  63 S5        29.92R
SLAYTON        MOCLDY    48  37  64 E7        29.92R
$$
MNZ065>067-074>077-082>085-091>093-260300-
   South Central Minnesota

CITY           SKY/WX    TMP DP  RH WIND       PRES   REMARKS
MANKATO        CLEAR     52  36  54 CALM      29.91R
NEW ULM        CLEAR     46  36  66 S7        29.92R
ST JAMES       PTCLDY    48  37  66 E3        29.93R
FAIRMONT       PTCLDY    46  34  61 E5        29.91R
GLENCOE        CLEAR     53  27  37 SE3       29.91R
FARIBAULT      CLEAR     45  30  57 CALM      29.91R
OWATONNA       CLEAR     45  34  65 CALM      29.91R
WASECA         CLEAR     45  37  76 CALM      29.91R
ALBERT LEA     PTCLDY    46  39  76 CALM      29.90R
$$
MNZ078>079-086>088-094>096-260300-
   Southeast Minnesota

CITY           SKY/WX    TMP DP  RH WIND       PRES   REMARKS
ROCHESTER      PTCLDY    49  28  44 NE6       29.90R
RED WING       CLEAR     46  27  46 CALM      29.89R
STANTON        CLEAR     48  29  47 CALM      29.89R
DODGE CENTER   PTCLDY    48  34  57 CALM      29.90R
WINONA         CLEAR     48  28  46 CALM      29.90R
AUSTIN         PTCLDY    46  37  71 CALM      29.89R
PRESTON        PTCLDY    48  30  50 CALM      29.89R
$$
ABBREVIATIONS USED IN REMARKS
   TC - TEMPERATURES IN CELSIUS
  WCI - WIND CHILL INDEX
   HX - HEAT INDEX
  VSB - VISIBILITY
$$



USA.gov is the U.S. government's official web portal to all federal, state and local government web resources and services.